Location: Piotrkow Trybunalski
(51.4000°N, 19.6830°E)
Time: 23:03:35
(UTC+01:00)

Explorer 7 - Pass Details

Date: 16 December 2025
Orbit: 433 x 550 km, 50.2° (Epoch: 13 January)

Event Time Altitude Azimuth Distance (km) Brightness Sun altitude
Rises 16:53:30 0° 240° (WSW) 2,477 12.2 -11.6°
Reaches altitude 10° 16:55:43 10° 235° (SW) 1,586 10.6 -11.9°
Enters shadow 17:01:20 19° 94° (E) 1,107 7.8 -12.7°
Exits shadow 17:36:53 -69° 76° (ENE) 12,451 13.6 -18.0°
